| time (UTC) | temp F | wind direction | speed MPH | gust MPH | rain 1hr in | rain 24hr in | rain mn in | humidity % | barometer mb |
| 20260502220922 | 52 | 128 | 5.0 | 9.0 | 0.00 | 0.05 | 0.05 | 100 | 1010.7 |
| 20260502215922 | 52 | 130 | 5.0 | 10.0 | 0.00 | 0.05 | 0.05 | 100 | 1010.7 |
| 20260502214922 | 52 | 129 | 5.0 | 9.0 | 0.00 | 0.05 | 0.05 | 100 | 1010.7 |
| 20260502213922 | 52 | 133 | 5.0 | 8.0 | 0.00 | 0.05 | 0.05 | 100 | 1010.6 |
| 20260502212922 | 52 | 132 | 6.0 | 10.0 | 0.00 | 0.05 | 0.05 | 100 | 1010.7 |
| 20260502211922 | 52 | 129 | 6.0 | 9.0 | 0.00 | 0.05 | 0.05 | 100 | 1010.7 |
| 20260502210922 | 52 | 131 | 6.0 | 9.0 | 0.00 | 0.05 | 0.05 | 100 | 1010.7 |
| 20260502205922 | 52 | 130 | 6.0 | 11.0 | 0.00 | 0.05 | 0.05 | 100 | 1010.7 |
| 20260502204922 | 52 | 128 | 6.0 | 12.0 | 0.00 | 0.05 | 0.05 | 100 | 1010.7 |
| 20260502203922 | 52 | 130 | 6.0 | 10.0 | 0.00 | 0.05 | 0.05 | 100 | 1010.7 |
| 20260502202922 | 52 | 135 | 6.0 | 10.0 | 0.00 | 0.05 | 0.05 | 100 | 1010.7 |
| 20260502201922 | 52 | 129 | 6.0 | 11.0 | 0.00 | 0.05 | 0.05 | 100 | 1010.6 |
| 20260502200922 | 52 | 134 | 5.0 | 9.0 | 0.00 | 0.05 | 0.05 | 100 | 1010.6 |
| 20260502195922 | 52 | 129 | 6.0 | 10.0 | 0.00 | 0.05 | 0.05 | 100 | 1010.6 |
| 20260502194922 | 52 | 145 | 6.0 | 10.0 | 0.00 | 0.05 | 0.05 | 100 | 1010.7 |
| 20260502193922 | 52 | 133 | 6.0 | 11.0 | 0.00 | 0.05 | 0.05 | 100 | 1010.6 |
| 20260502192922 | 52 | 133 | 6.0 | 10.0 | 0.00 | 0.05 | 0.05 | 100 | 1010.7 |
| 20260502191921 | 52 | 131 | 5.0 | 10.0 | 0.00 | 0.05 | 0.05 | 100 | 1010.7 |
| 20260502190921 | 52 | 135 | 7.0 | 13.0 | 0.00 | 0.05 | 0.05 | 100 | 1010.7 |
| 20260502185921 | 52 | 137 | 6.0 | 12.0 | 0.01 | 0.05 | 0.05 | 100 | 1010.7 |
| 20260502184921 | 52 | 137 | 5.0 | 11.0 | 0.01 | 0.05 | 0.05 | 100 | 1010.8 |
| 20260502183921 | 52 | 133 | 6.0 | 9.0 | 0.01 | 0.05 | 0.05 | 100 | 1010.7 |
| 20260502182921 | 52 | 134 | 4.0 | 8.0 | 0.01 | 0.05 | 0.05 | 100 | 1010.7 |
| 20260502181921 | 52 | 134 | 4.0 | 9.0 | 0.01 | 0.05 | 0.05 | 100 | 1010.8 |
| 20260502180921 | 52 | 134 | 4.0 | 7.0 | 0.01 | 0.05 | 0.05 | 100 | 1010.8 |
| 20260502163921 | 52 | 78 | 5.0 | 11.0 | 0.01 | 0.03 | 0.03 | 100 | 1011.2 |
| 20260502162921 | 52 | 80 | 5.0 | 8.0 | 0.01 | 0.03 | 0.03 | 100 | 1011.2 |
| 20260502161921 | 52 | 63 | 5.0 | 8.0 | 0.01 | 0.03 | 0.03 | 100 | 1011.2 |
| 20260502160921 | 52 | 65 | 5.0 | 11.0 | 0.01 | 0.03 | 0.03 | 100 | 1011.3 |
| 20260502151924 | 52 | 80 | 4.0 | 7.0 | 0.01 | 0.02 | 0.02 | 100 | 1011.9 |
| 20260502150924 | 52 | 125 | 4.0 | 8.0 | 0.01 | 0.02 | 0.02 | 100 | 1012.0 |
| 20260502122924 | 52 | 149 | 11.0 | 17.0 | 0.00 | 0.00 | 0.00 | 100 | 1013.6 |
| 20260502121924 | 52 | 152 | 11.0 | 17.0 | 0.00 | 0.00 | 0.00 | 100 | 1013.6 |
| 20260502120924 | 53 | 150 | 11.0 | 16.0 | 0.00 | 0.00 | 0.00 | 100 | 1013.7 |
| 20260502115924 | 53 | 148 | 9.0 | 14.0 | 0.00 | 0.00 | 0.00 | 100 | 1013.8 |
| 20260502114924 | 53 | 149 | 10.0 | 14.0 | 0.00 | 0.00 | 0.00 | 100 | 1013.9 |
| 20260502113923 | 53 | 151 | 11.0 | 15.0 | 0.00 | 0.00 | 0.00 | 100 | 1013.9 |
| 20260502112923 | 53 | 150 | 11.0 | 15.0 | 0.00 | 0.00 | 0.00 | 100 | 1014.0 |
| 20260502111923 | 53 | 152 | 10.0 | 14.0 | 0.00 | 0.00 | 0.00 | 100 | 1013.9 |
| 20260502110923 | 53 | 153 | 10.0 | 13.0 | 0.00 | 0.00 | 0.00 | 100 | 1014.0 |
| 20260502105923 | 53 | 154 | 10.0 | 13.0 | 0.00 | 0.00 | 0.00 | 100 | 1014.2 |
| 20260502104923 | 53 | 151 | 11.0 | 14.0 | 0.00 | 0.00 | 0.00 | 100 | 1014.2 |
| 20260502103923 | 53 | 152 | 12.0 | 16.0 | 0.00 | 0.00 | 0.00 | 100 | 1014.1 |
| 20260502102923 | 53 | 151 | 11.0 | 15.0 | 0.00 | 0.00 | 0.00 | 100 | 1014.1 |
| 20260502101923 | 53 | 152 | 10.0 | 15.0 | 0.00 | 0.00 | 0.00 | 100 | 1014.1 |
| 20260502100923 | 53 | 149 | 10.0 | 17.0 | 0.00 | 0.00 | 0.00 | 100 | 1014.1 |
| 20260502090923 | 52 | 145 | 8.0 | 12.0 | 0.00 | 0.00 | 0.00 | 100 | 1014.5 |
| 20260502070922 | 52 | 150 | 8.0 | 11.0 | 0.00 | 0.00 | 0.00 | 100 | 1014.7 |
| 20260502065922 | 52 | 153 | 9.0 | 12.0 | 0.00 | 0.00 | 0.00 | 100 | 1014.8 |
| 20260502064922 | 52 | 147 | 7.0 | 11.0 | 0.00 | 0.00 | 0.00 | 100 | 1014.7 |
| 20260502063922 | 52 | 151 | 10.0 | 13.0 | 0.00 | 0.00 | 0.00 | 100 | 1014.8 |
| 20260502062922 | 52 | 155 | 9.0 | 14.0 | 0.00 | 0.00 | 0.00 | 100 | 1014.8 |
| 20260502061922 | 52 | 153 | 11.0 | 17.0 | 0.00 | 0.00 | 0.00 | 100 | 1014.8 |
| 20260502060922 | 52 | 156 | 10.0 | 15.0 | 0.00 | 0.00 | 0.00 | 100 | 1014.8 |
| 20260502055922 | 52 | 152 | 11.0 | 15.0 | 0.00 | 0.00 | 0.00 | 100 | 1014.7 |
| 20260502054922 | 52 | 152 | 10.0 | 13.0 | 0.00 | 0.00 | 0.00 | 100 | 1014.7 |
| 20260502053922 | 52 | 151 | 8.0 | 12.0 | 0.00 | 0.00 | 0.00 | 100 | 1014.6 |
| 20260502052922 | 52 | 155 | 9.0 | 13.0 | 0.00 | 0.00 | 0.00 | 100 | 1014.7 |
| 20260502051922 | 52 | 155 | 10.0 | 14.0 | 0.00 | 0.00 | 0.00 | 100 | 1014.7 |
| 20260502050922 | 52 | 155 | 11.0 | 15.0 | 0.00 | 0.00 | 0.00 | 100 | 1014.7 |
| 20260502045922 | 51 | 156 | 9.0 | 15.0 | 0.00 | 0.00 | 0.00 | 100 | 1014.8 |
| 20260502044922 | 52 | 158 | 10.0 | 14.0 | 0.00 | 0.00 | 0.00 | 100 | 1014.8 |
| 20260502043922 | 52 | 157 | 8.0 | 13.0 | 0.00 | 0.00 | 0.00 | 100 | 1014.9 |
| 20260502042922 | 52 | 164 | 6.0 | 11.0 | 0.00 | 0.00 | 0.00 | 100 | 1014.9 |
| 20260502041922 | 52 | 159 | 9.0 | 14.0 | 0.00 | 0.00 | 0.00 | 100 | 1015.1 |
| 20260502040921 | 52 | 165 | 5.0 | 11.0 | 0.00 | 0.00 | 0.00 | 100 | 1015.1 |
| 20260502035921 | 52 | 159 | 8.0 | 14.0 | 0.00 | 0.00 | 0.00 | 100 | 1015.3 |
| 20260502034921 | 52 | 157 | 9.0 | 13.0 | 0.00 | 0.00 | 0.00 | 100 | 1015.3 |
| 20260502033921 | 52 | 156 | 10.0 | 17.0 | 0.00 | 0.00 | 0.00 | 100 | 1015.4 |
| 20260502032921 | 52 | 158 | 11.0 | 16.0 | 0.00 | 0.00 | 0.00 | 100 | 1015.5 |
| 20260502031922 | 52 | 157 | 9.0 | 13.0 | 0.00 | 0.00 | 0.00 | 100 | 1015.6 |
| 20260502030921 | 52 | 173 | 4.0 | 9.0 | 0.00 | 0.00 | 0.00 | 100 | 1015.6 |
| 20260502025921 | 52 | 171 | 4.0 | 8.0 | 0.00 | 0.00 | 0.00 | 100 | 1015.7 |
| 20260502024921 | 52 | 166 | 4.0 | 8.0 | 0.00 | 0.00 | 0.00 | 100 | 1015.8 |
| 20260502023921 | 52 | 158 | 7.0 | 11.0 | 0.00 | 0.00 | 0.00 | 100 | 1015.8 |
| 20260502022921 | 52 | 159 | 7.0 | 11.0 | 0.00 | 0.00 | 0.00 | 100 | 1015.9 |
| 20260502021921 | 52 | 157 | 7.0 | 12.0 | 0.00 | 0.00 | 0.00 | 100 | 1016.0 |
| 20260502020921 | 52 | 159 | 6.0 | 10.0 | 0.00 | 0.00 | 0.00 | 100 | 1016.1 |
| 20260502015921 | 52 | 170 | 4.0 | 8.0 | 0.00 | 0.00 | 0.00 | 100 | 1016.3 |
| 20260502014921 | 52 | 167 | 4.0 | 8.0 | 0.00 | 0.00 | 0.00 | 100 | 1016.4 |
| 20260502013921 | 52 | 172 | 4.0 | 7.0 | 0.00 | 0.00 | 0.00 | 100 | 1016.6 |
| 20260502012921 | 52 | 170 | 4.0 | 7.0 | 0.00 | 0.00 | 0.00 | 100 | 1016.7 |
| 20260502011921 | 52 | 179 | 5.0 | 12.0 | 0.00 | 0.00 | 0.00 | 100 | 1016.8 |
| 20260502010921 | 52 | 171 | 5.0 | 9.0 | 0.00 | 0.00 | 0.00 | 100 | 1016.9 |
| 20260502005921 | 52 | 171 | 3.0 | 7.0 | 0.00 | 0.00 | 0.00 | 100 | 1017.0 |
| 20260502004921 | 52 | 175 | 4.0 | 8.0 | 0.00 | 0.00 | 0.00 | 100 | 1017.1 |
| 20260502003925 | 52 | 172 | 4.0 | 10.0 | 0.00 | 0.00 | 0.00 | 100 | 1017.2 |
| 20260502002925 | 52 | 164 | 6.0 | 12.0 | 0.00 | 0.00 | 0.00 | 100 | 1017.2 |
| 20260502001925 | 52 | 166 | 6.0 | 13.0 | 0.00 | 0.00 | 0.00 | 100 | 1017.2 |
| 20260502000913 | 53 | 162 | 5.0 | 11.0 | 0.00 | 0.00 | 0.00 | 100 | 1017.3 |
| 20260501235913 | 53 | 163 | 5.0 | 10.0 | 0.00 | 0.00 | 0.00 | 100 | 1017.3 |
| 20260501234913 | 52 | 178 | 3.0 | 5.0 | 0.00 | 0.00 | 0.00 | 100 | 1017.4 |
| 20260501233913 | 52 | 166 | 5.0 | 9.0 | 0.00 | 0.00 | 0.00 | 100 | 1017.5 |
| 20260501232913 | 53 | 166 | 5.0 | 11.0 | 0.00 | 0.00 | 0.00 | 100 | 1017.6 |
| 20260501231913 | 53 | 165 | 3.0 | 6.0 | 0.00 | 0.00 | 0.00 | 100 | 1017.7 |
| 20260501230913 | 53 | 165 | 4.0 | 9.0 | 0.00 | 0.00 | 0.00 | 100 | 1017.7 |
| 20260501225913 | 53 | 171 | 4.0 | 9.0 | 0.00 | 0.00 | 0.00 | 100 | 1017.7 |
| 20260501224913 | 53 | 166 | 4.0 | 8.0 | 0.00 | 0.00 | 0.00 | 100 | 1017.7 |
| 20260501223913 | 53 | 168 | 3.0 | 6.0 | 0.00 | 0.00 | 0.00 | 100 | 1017.8 |
| 20260501222913 | 53 | 199 | 3.0 | 6.0 | 0.00 | 0.00 | 0.00 | 100 | 1017.8 |
| 20260501221912 | 53 | 184 | 3.0 | 7.0 | 0.00 | 0.00 | 0.00 | 100 | 1017.9 |